DW5785 Weather Reports


Display with metric or nautical units.
time (UTC)temp
F
wind
direction
speed
MPH
gust
MPH
rain 1hr
in
rain 24hr
in
rain mn
in
humidity
%
barometer
mb
20260505074513 64 243 3.0 9.0 0.00 0.02 0.00 69 1008.6
20260505074010 64 265 3.0 7.0 0.00 0.02 0.00 71 1008.6
20260505073514 63 322 3.0 7.0 0.00 0.02 0.00 73 1008.7
20260505073010 63 282 6.0 6.0 0.00 0.02 0.00 73 1008.7
20260505072510 62 260 4.0 7.0 0.00 0.02 0.00 73 1008.7
20260505072013 63 270 2.0 6.0 0.00 0.02 0.00 74 1008.7
20260505071510 63 341 2.0 6.0 0.00 0.02 0.00 73 1008.7
20260505071013 63 298 4.0 8.0 0.00 0.02 0.00 72 1008.7
20260505070511 63 335 2.0 5.0 0.00 0.02 0.00 71 1008.8
20260505070010 63 345 3.0 7.0 0.00 0.02 0.00 71 1008.8
20260505065510 63 304 1.0 4.0 0.00 0.02 0.00 71 1008.9
20260505065016 63 338 1.0 3.0 0.00 0.02 0.00 70 1008.9
20260505064510 63 325 2.0 5.0 0.00 0.02 0.00 69 1008.9
20260505064010 63 246 1.0 7.0 0.00 0.02 0.00 69 1009.1
20260505063514 64 316 2.0 5.0 0.00 0.02 0.00 69 1009.1
20260505063013 63 295 2.0 4.0 0.00 0.02 0.00 72 1009.1
20260505062510 63 224 3.0 3.0 0.00 0.02 0.00 75 1009.1
20260505062010 61 323 0.0 4.0 0.00 0.02 0.00 77 1009.0
20260505061513 61 267 4.0 5.0 0.00 0.02 0.00 77 1009.1
20260505061010 61 308 3.0 5.0 0.00 0.02 0.00 77 1009.1
20260505060517 60 262 2.0 3.0 0.00 0.02 0.00 79 1009.3
20260505060012 60 231 2.0 3.0 0.00 0.02 0.00 79 1009.3
20260505055509 60 282 1.0 2.0 0.00 0.02 0.00 80 1009.3
20260505055010 60 277 0.0 3.0 0.00 0.02 0.00 80 1009.2
20260505054510 60 300 3.0 3.0 0.00 0.02 0.00 80 1009.2
20260505054009 60 304 1.0 2.0 0.00 0.02 0.00 80 1009.1
20260505053517 60 43 0.0 2.0 0.00 0.02 0.00 79 1009.2
20260505053013 60 1 1.0 2.0 0.00 0.02 0.00 77 1009.1
20260505052516 61 105 1.0 3.0 0.00 0.02 0.00 75 1009.1
20260505052016 61 282 2.0 3.0 0.00 0.02 0.00 74 1009.1
20260505051509 61 282 0.0 2.0 0.00 0.02 0.00 72 1009.1
20260505051010 61 265 1.0 3.0 0.00 0.02 0.00 72 1009.1
20260505050511 61 287 1.0 3.0 0.00 0.02 0.00 73 1009.2
20260505041510 58 253 1.0 3.0 0.00 0.02 0.00 77 1009.5
20260505041010 58 238 1.0 3.0 0.00 0.02 0.00 77 1009.4
20260505040511 58 238 0.0 2.0 0.00 0.02 0.00 77 1009.4
20260505040013 58 238 1.0 2.0 0.00 0.02 0.00 77 1009.4
20260505035513 58 238 1.0 4.0 0.00 0.02 0.00 77 1009.4
20260505035010 58 249 3.0 4.0 0.00 0.02 0.00 77 1009.4
20260505034510 58 244 2.0 3.0 0.00 0.02 0.00 76 1009.5
20260505034016 59 266 1.0 2.0 0.00 0.02 0.00 76 1009.5
20260505033514 59 267 2.0 3.0 0.00 0.02 0.00 76 1009.5
20260505033010 59 235 2.0 2.0 0.00 0.02 0.00 76 1009.5
20260505032510 59 231 1.0 2.0 0.00 0.02 0.00 77 1009.6
20260505032016 58 231 1.0 2.0 0.00 0.02 0.00 77 1009.7
20260505031513 59 231 0.0 2.0 0.00 0.02 0.00 78 1009.8
20260505031010 59 231 0.0 3.0 0.00 0.02 0.00 77 1009.8
20260505030514 59 231 2.0 3.0 0.00 0.02 0.00 77 1009.9
20260505030010 59 189 0.0 3.0 0.00 0.02 0.00 77 1009.9
20260505025510 59 223 2.0 3.0 0.00 0.02 0.00 77 1009.9
20260505025010 59 232 1.0 2.0 0.00 0.02 0.00 77 1009.9
20260505024516 59 232 0.0 2.0 0.00 0.02 0.00 77 1009.9
20260505024013 59 227 1.0 3.0 0.00 0.02 0.00 77 1009.9
20260505023511 59 254 2.0 4.0 0.00 0.02 0.00 77 1009.8
20260505023013 59 255 2.0 5.0 0.00 0.02 0.00 76 1009.8
20260505022513 59 258 1.0 4.0 0.00 0.02 0.00 76 1009.8
20260505022013 60 251 0.0 3.0 0.00 0.02 0.00 76 1009.8
20260505021510 60 282 2.0 3.0 0.00 0.02 0.00 75 1009.8
20260505021010 60 282 3.0 3.0 0.00 0.02 0.00 75 1009.9
20260505020514 60 264 1.0 4.0 0.00 0.02 0.00 74 1009.9
20260505020012 60 262 3.0 5.0 0.00 0.02 0.00 73 1009.9
20260505015509 61 282 3.0 3.0 0.00 0.02 0.00 72 1009.9
20260505015009 61 255 1.0 3.0 0.00 0.02 0.00 72 1010.0
20260505014509 61 251 1.0 3.0 0.00 0.02 0.00 72 1010.0
20260505014010 61 268 3.0 3.0 0.00 0.02 0.00 71 1010.0
20260505013514 61 277 3.0 4.0 0.00 0.02 0.00 71 1010.1
20260505013009 61 266 2.0 3.0 0.00 0.02 0.00 70 1010.2
20260505012509 61 297 0.0 2.0 0.00 0.02 0.00 70 1010.3
20260505012009 61 297 2.0 3.0 0.00 0.02 0.00 70 1010.2
20260505011512 62 282 2.0 2.0 0.00 0.02 0.00 71 1010.3
20260505011010 62 282 1.0 2.0 0.00 0.02 0.00 70 1010.4
20260505010511 62 282 2.0 3.0 0.00 0.02 0.00 69 1010.5
20260505010009 62 295 2.0 4.0 0.00 0.02 0.00 69 1010.5
20260505005509 62 312 3.0 4.0 0.00 0.02 0.00 68 1010.5
20260505005013 62 328 2.0 4.0 0.00 0.02 0.00 69 1010.6
20260505004510 62 322 2.0 4.0 0.00 0.02 0.00 70 1010.7
20260505004010 61 296 2.0 2.0 0.00 0.02 0.00 71 1010.7
20260505003511 61 296 2.0 3.0 0.00 0.02 0.00 72 1010.7
20260505003013 61 282 4.0 5.0 0.00 0.02 0.00 72 1010.8
20260505002510 61 299 2.0 7.0 0.00 0.02 0.00 73 1010.9
20260505002019 61 297 5.0 7.0 0.00 0.02 0.00 73 1010.9
20260505001510 61 303 5.0 5.0 0.00 0.02 0.00 73 1010.9
20260505001013 61 282 4.0 5.0 0.00 0.02 0.00 72 1011.1
20260505000511 61 319 4.0 5.0 0.00 0.02 0.00 72 1011.3
20260505000013 61 335 3.0 4.0 0.00 0.02 0.00 71 1011.3
20260504235513 61 353 0.0 13.0 0.00 0.02 0.00 72 1011.3
20260504235016 61 356 2.0 14.0 0.00 0.02 0.00 73 1011.4
20260504234516 60 325 4.0 11.0 0.01 0.02 0.00 75 1011.3
20260504234013 60 13 11.0 12.0 0.01 0.02 0.00 76 1011.3
20260504233517 60 37 0.0 7.0 0.01 0.02 0.00 76 1011.4
20260504233010 60 80 5.0 6.0 0.02 0.02 0.00 75 1011.6
20260504232513 60 54 4.0 12.0 0.02 0.02 0.00 75 1011.8
20260504232010 60 43 8.0 8.0 0.02 0.02 0.00 75 1012.0
20260504231516 60 48 4.0 8.0 0.02 0.02 0.00 75 1012.0
20260504231013 61 70 7.0 13.0 0.02 0.02 0.00 72 1012.1
20260504230520 62 94 9.0 9.0 0.02 0.02 0.00 65 1012.2
20260504230010 62 15 6.0 11.0 0.02 0.02 0.00 68 1012.0
20260504225513 62 358 6.0 8.0 0.01 0.01 0.00 67 1012.2
20260504225010 62 37 6.0 11.0 0.01 0.01 0.00 68 1012.6
20260504224513 62 43 1.0 5.0 0.00 0.00 0.00 69 1012.9
20260504224013 62 201 0.0 4.0 0.00 0.00 0.00 68 1013.4
20260504223514 62 194 2.0 4.0 0.00 0.00 0.00 67 1013.6
20260504223010 63 172 2.0 15.0 0.00 0.00 0.00 66 1013.7
20260504222510 64 132 7.0 15.0 0.00 0.00 0.00 64 1013.7
20260504222019 66 120 5.0 7.0 0.00 0.00 0.00 57 1013.2
20260504221510 66 167 3.0 5.0 0.00 0.00 0.00 55 1012.8
20260504221010 65 195 5.0 6.0 0.00 0.00 0.00 56 1012.6
20260504220517 65 191 4.0 6.0 0.00 0.00 0.00 56 1012.5
20260504220010 65 209 2.0 6.0 0.00 0.00 0.00 56 1012.3
20260504215509 66 256 5.0 6.0 0.00 0.00 0.00 55 1012.3
20260504215015 66 261 4.0 4.0 0.00 0.00 0.00 54 1012.2
20260504214509 67 262 4.0 5.0 0.00 0.00 0.00 52 1012.2
20260504214012 67 304 3.0 5.0 0.00 0.00 0.00 51 1012.2
20260504213514 67 306 3.0 6.0 0.00 0.00 0.00 51 1012.3
20260504213009 67 325 2.0 5.0 0.00 0.00 0.00 51 1012.3
20260504212515 67 351 4.0 6.0 0.00 0.00 0.00 52 1012.3
20260504212010 67 316 1.0 5.0 0.00 0.00 0.00 51 1012.4
20260504211517 67 298 1.0 4.0 0.00 0.00 0.00 51 1012.4
20260504211012 67 318 2.0 5.0 0.00 0.00 0.00 51 1012.4
20260504210510 67 312 3.0 6.0 0.00 0.00 0.00 51 1012.5
20260504210016 67 306 2.0 4.0 0.00 0.00 0.00 51 1012.5
20260504205511 67 277 1.0 4.0 0.00 0.00 0.00 51 1012.5
20260504205013 68 287 3.0 5.0 0.00 0.00 0.00 50 1012.6
20260504204512 68 299 2.0 5.0 0.00 0.00 0.00 49 1012.6
20260504204012 68 330 1.0 5.0 0.00 0.00 0.00 49 1012.7
20260504203511 68 303 2.0 5.0 0.00 0.00 0.00 49 1012.6
20260504203013 68 314 2.0 4.0 0.00 0.00 0.00 49 1012.6
20260504202509 68 337 1.0 4.0 0.00 0.00 0.00 49 1012.6
20260504202012 68 314 1.0 3.0 0.00 0.00 0.00 49 1012.6
20260504201510 68 331 2.0 3.0 0.00 0.00 0.00 49 1012.7
20260504201016 68 345 2.0 3.0 0.00 0.00 0.00 48 1012.7
20260504200514 68 339 2.0 4.0 0.00 0.00 0.00 48 1012.7
20260504200013 68 346 4.0 6.0 0.00 0.00 0.00 48 1012.7
20260504195510 68 341 2.0 6.0 0.00 0.00 0.00 48 1012.6
20260504195010 69 329 2.0 5.0 0.00 0.00 0.00 48 1012.6
20260504194514 69 333 2.0 7.0 0.00 0.00 0.00 48 1012.6
20260504194009 69 21 7.0 7.0 0.00 0.00 0.00 48 1012.6
20260504193510 69 358 5.0 7.0 0.00 0.00 0.00 48 1012.6
20260504193013 69 340 5.0 7.0 0.00 0.00 0.00 47 1012.6
20260504192510 69 353 4.0 6.0 0.00 0.00 0.00 47 1012.6
20260504192016 69 352 2.0 6.0 0.00 0.00 0.00 47 1012.5
20260504191511 69 28 5.0 6.0 0.00 0.00 0.00 46 1012.5
20260504191010 69 28 2.0 7.0 0.00 0.00 0.00 46 1012.5
20260504190510 69 351 7.0 8.0 0.00 0.00 0.00 46 1012.4
20260504190010 70 14 5.0 6.0 0.00 0.00 0.00 46 1012.3
20260504185510 70 318 3.0 5.0 0.00 0.00 0.00 45 1012.3
20260504185010 70 356 3.0 7.0 0.00 0.00 0.00 45 1012.2
20260504184511 70 347 3.0 4.0 0.00 0.00 0.00 44 1012.1
20260504184010 70 343 2.0 4.0 0.00 0.00 0.00 44 1012.2
20260504183510 70 342 2.0 4.0 0.00 0.00 0.00 44 1012.2
20260504183013 70 356 1.0 4.0 0.00 0.00 0.00 43 1012.2
20260504182516 70 345 3.0 5.0 0.00 0.00 0.00 43 1012.1
20260504182013 70 306 3.0 4.0 0.00 0.00 0.00 43 1012.1
20260504181514 70 325 0.0 5.0 0.00 0.00 0.00 43 1012.1
20260504181010 70 301 1.0 5.0 0.00 0.00 0.00 44 1012.1
20260504180509 70 342 1.0 5.0 0.00 0.00 0.00 44 1012.0
20260504180009 70 343 2.0 5.0 0.00 0.00 0.00 44 1012.1
20260504175512 70 314 2.0 5.0 0.00 0.00 0.00 43 1012.1
20260504175018 71 40 1.0 6.0 0.00 0.00 0.00 44 1012.1
20260504174511 71 326 5.0 6.0 0.00 0.00 0.00 44 1012.0
20260504174009 71 346 2.0 5.0 0.00 0.00 0.00 44 1012.0
20260504173509 71 343 3.0 4.0 0.00 0.00 0.00 44 1012.0
20260504173012 71 326 1.0 4.0 0.00 0.00 0.00 44 1012.0
20260504172509 71 31 1.0 3.0 0.00 0.00 0.00 44 1012.1
20260504172010 71 282 1.0 6.0 0.00 0.00 0.00 44 1012.0
20260504171511 71 18 0.0 2.0 0.00 0.00 0.00 44 1012.1
20260504171009 71 335 1.0 5.0 0.00 0.00 0.00 44 1012.0
20260504170509 71 351 2.0 8.0 0.00 0.00 0.00 44 1012.1
20260504151016 75 352 1.0 5.0 0.00 0.00 0.00 38 1012.4
20260504150509 75 282 1.0 4.0 0.00 0.00 0.00 38 1012.5
20260504141013 74 277 1.0 6.0 0.00 0.00 0.00 39 1012.8
20260504140513 74 112 5.0 5.0 0.00 0.00 0.00 39 1012.8
20260504130509 72 325 1.0 6.0 0.00 0.00 0.00 41 1013.1
20260504110511 69 297 1.0 4.0 0.00 0.00 0.00 45 1014.0
20260504100514 67 287 2.0 6.0 0.00 0.00 0.00 46 1014.5
20260504081513 64 282 3.0 8.0 0.00 0.00 0.00 51 1014.2
20260504081018 64 282 6.0 8.0 0.00 0.00 0.00 52 1014.2
20260504080517 64 277 4.0 6.0 0.00 0.00 0.00 53 1014.3